Temperature
14 14 14 14 14 14 14 14 15 16 16 15 15 14 14 14 15 15 15 15 15 15 15 15 16 16 16 16 16 16 16 15 15 14 14 14 14 13
14 14 14 14 14 14 14 14 14 14 15 15 14 14 14 14 14 15 15 15 15 15 15 15 15 15 16 16 16 16 16 15 15 14 14 14 14 13
13 13 13 13 13 13 13 13 13 13 14 14 14 14 14 14 15 15 15 15 14 14 14 14 15 15 15 16 16 16 15 15 15 14 14 14 13 13
12 12 12 12 12 12 13 13 13 13 13 13 14 14 14 14 14 15 14 14 14 14 14 14 14 14 15 15 15 15 15 15 14 14 14 14 13 12
11 12 12 12 12 12 12 12 13 13 13 13 13 13 13 13 14 14 14 14 14 13 13 13 13 14 14 14 15 15 15 14 14 14 14 13 12 12
11 11 11 11 11 11 12 12 12 12 13 13 13 13 13 13 13 13 13 13 13 13 13 13 13 13 14 14 14 14 14 14 14 14 13 12 12 11
11 11 11 12 12 12 12 12 12 12 13 13 13 13 12 12 12 12 12 12 12 12 12 12 12 13 13 13 13 13 13 13 13 13 12 12 11 11
11 11 11 11 11 12 12 12 12 12 12 12 13 12 12 12 12 12 12 12 11 12 12 12 12 12 12 12 13 13 13 12 12 12 12 11 11 11
11 11 11 11 11 11 11 11 11 12 12 11 11 11 11 11 11 12 11 11 11 11 11 11 11 11 12 12 12 12 12 12 12 11 12 12 12 12
10 10 10 11 11 11 11 11 11 11 11 11 11 11 11 12 12 12 12 12 12 11 11 11 11 11 11 11 12 12 12 12 12 12 12 12 12 12
10 10 10 10 11 10 10 10 10 10 11 11 11 11 11 11 12 12 12 13 12 12 11 11 11 11 11 11 11 11 11 11 11 12 12 12 12 12
10 10 10 10 10 10 10 10 10 10 10 11 10 10 10 10 11 11 11 12 12 12 11 11 11 11 11 10 10 11 11 11 11 11 11 11 11 11
10 10 9 9 9 9 9 9 10 10 10 11 11 11 11 10 10 10 10 10 10 11 10 10 11 11 11 10 10 10 10 11 11 11 11 11 11 11
10 10 9 9 9 9 9 9 9 10 10 10 10 10 10 10 9 9 9 9 9 9 10 10 10 10 10 11 10 10 10 10 10 10 11 11 11 11
9 9 9 8 8 8 8 8 9 9 9 10 9 9 9 9 9 9 9 9 9 9 9 10 10 10 10 10 10 10 10 10 10 10 10 10 10 10
8 8 8 8 8 8 8 9 8 8 8 8 8 9 9 9 9 9 9 10 10 10 9 9 9 9 10 10 10 10 10 10 10 10 10 10 10 10
9 9 9 9 9 9 9 8 8 8 8 7 7 8 8 8 8 8 8 9 9 9 9 9 9 9 9 9 9 9 9 9 9 10 10 10 10 10
9 10 10 10 10 9 9 9 8 7 7 7 7 7 7 7 7 8 8 8 8 8 8 8 8 9 9 8 8 8 8 9 9 9 9 9 9 9
9 10 9 9 9 9 9 8 8 7 6 7 6 6 6 7 7 7 7 7 7 7 7 7 7 7 8 8 7 7 7 7 8 8 8 9 9 9
10 10 9 9 9 9 8 8 8 7 7 6 6 6 6 6 6 6 7 6 6 7 7 7 6 6 6 7 7 7 7 7 7 7 8 8 8 8
10 9 9 9 9 8 8 7 7 7 6 6 6 5 6 6 6 6 6 5 6 6 6 6 6 5 6 6 7 7 7 6 6 6 7 7 7 8
10 9 9 9 8 8 8 8 8 7 6 6 6 5 5 5 5 5 6 6 6 6 6 6 6 6 6 6 6 7 6 6 6 6 6 6 6 6
10 9 9 9 8 8 8 8 7 7 6 6 6 5 5 5 5 5 5 5 5 5 5 6 6 6 6 6 6 6 6 6 6 5 5 5 5 6
Wind_Speed
2 2 3 2 3 3 3 4 5 6 5 2 3 4 6 6 6 7 5 5 5 5 7 8 10 13 14 16 18 20 21 21 23 28 34 36 36 35
0 1 2 3 3 3 4 4 4 6 6 5 5 7 8 6 6 7 6 4 7 6 6 8 10 12 14 15 15 16 18 19 23 29 34 35 35 34
2 2 3 4 4 3 4 4 4 5 7 7 5 6 6 7 5 5 5 5 5 6 6 7 10 12 13 13 12 12 15 19 24 31 35 34 33 31
4 4 4 3 4 5 5 5 5 5 7 8 7 6 6 6 6 6 5 5 4 4 4 6 9 10 11 11 10 10 14 19 25 30 32 32 31 29
6 6 5 5 6 6 6 7 6 5 5 5 6 5 5 7 8 7 6 5 4 3 3 4 6 8 8 8 6 7 13 19 24 27 29 29 28 27
8 7 7 7 7 6 5 6 7 6 5 5 6 6 7 9 9 9 8 5 3 2 1 3 4 5 4 5 3 4 11 18 22 24 25 25 25 24
10 10 9 8 8 7 7 8 8 7 7 8 8 9 10 10 10 9 9 8 3 2 1 2 3 4 3 1 2 6 11 16 20 22 23 23 23 22
10 9 9 9 7 7 7 8 9 9 10 9 10 10 10 10 9 8 8 7 5 5 3 2 3 4 4 3 5 8 11 15 18 20 21 21 20 19
9 8 9 10 9 8 6 6 9 7 5 9 11 11 11 10 10 10 8 6 5 5 3 3 4 4 4 4 6 8 10 12 15 17 18 19 19 18
8 8 9 9 10 9 8 9 9 10 9 9 9 9 10 10 10 8 5 1 2 3 4 3 3 3 4 3 3 5 8 10 11 13 15 16 16 17
7 7 8 9 12 13 7 7 7 6 5 4 3 3 3 6 10 10 10 9 6 5 5 3 2 1 2 3 3 1 5 8 11 12 14 15 16 16
5 6 10 9 11 13 8 8 7 7 7 5 2 3 5 7 9 11 11 10 9 6 8 5 3 1 1 1 1 1 2 4 8 10 13 15 15 12
3 4 6 9 10 11 8 7 6 8 6 6 6 7 7 8 10 10 10 9 9 8 9 7 5 4 2 1 1 1 2 3 5 6 10 12 14 12
2 3 6 7 8 9 7 8 10 9 6 7 7 8 8 9 9 9 8 7 6 7 9 9 5 5 5 2 0 2 3 3 4 5 6 9 10 12
4 7 5 1 3 5 6 7 8 7 8 7 8 8 8 8 8 7 7 6 2 4 8 10 9 7 5 4 3 1 0 2 3 3 5 6 6 6
5 6 5 1 3 4 2 3 6 8 8 8 8 8 8 8 8 8 9 8 7 5 7 9 8 8 6 5 4 4 3 2 0 1 2 3 3 3
3 5 6 5 4 4 5 5 7 7 7 8 8 9 8 8 8 8 8 8 7 8 9 8 8 5 6 6 5 6 5 4 3 2 1 2 3 2
3 5 5 4 4 4 5 5 6 7 8 8 8 8 8 8 8 8 8 8 8 8 8 9 10 8 3 4 8 8 6 6 6 5 3 2 1 2
4 5 4 4 3 4 4 5 6 6 6 7 7 8 8 7 7 8 8 9 8 8 8 8 9 10 9 7 3 5 7 7 7 6 5 4 3 1
5 5 4 4 2 2 3 4 5 5 6 6 7 7 7 7 7 8 7 9 9 8 8 7 8 9 10 10 9 6 2 6 7 7 7 5 4 2
6 5 4 3 2 1 1 2 3 4 5 6 6 6 7 6 7 7 7 6 7 7 8 8 8 8 9 8 8 6 3 1 2 5 7 7 5 4
6 6 5 4 3 3 3 3 3 2 3 4 5 5 6 6 6 7 7 8 7 8 9 8 8 8 8 8 9 9 8 6 1 4 3 4 5 4
7 6 6 6 6 5 5 5 4 4 3 3 4 5 5 6 6 7 7 7 8 8 9 9 8 8 8 8 8 8 10 10 7 6 4 4 6 8
Wind_Direction
242 253 285 309 303 316 316 319 321 319 322 345 342 348 337 326 323 305 292 164 202 229 248 262 268 270 270 268 258 244 234 225 211 196 185 182 182 184
336 1 330 324 324 315 314 311 303 301 303 312 316 323 328 319 309 302 297 193 218 231 252 270 279 280 281 280 267 242 222 210 195 182 178 177 180 184
84 57 40 11 351 339 338 326 310 301 293 298 297 309 308 311 311 294 276 257 240 224 253 276 284 288 289 290 277 239 213 197 184 176 174 175 178 183
69 57 42 39 27 12 352 351 337 316 302 309 315 319 317 321 315 298 280 260 250 221 256 287 292 296 300 301 283 238 206 188 176 172 172 173 176 177
73 66 54 44 31 25 4 359 345 340 336 322 335 345 345 351 340 331 306 277 252 217 238 279 294 306 312 314 293 227 192 177 168 166 167 169 171 175
77 68 56 44 29 12 12 12 4 4 25 23 25 23 19 11 9 359 348 322 279 245 339 343 322 300 321 342 329 184 170 164 160 159 160 162 167 173
83 73 63 57 43 21 22 19 19 22 37 41 40 36 28 19 15 5 358 348 356 10 313 313 312 307 318 16 72 143 153 153 153 155 158 162 168 175
86 82 81 66 83 80 57 44 28 29 30 29 40 34 27 17 9 12 11 12 10 358 338 344 346 327 326 339 106 133 150 154 156 159 164 169 176 185
77 64 60 55 36 57 97 126 74 54 22 27 43 28 23 12 360 11 25 28 22 351 359 26 6 343 348 34 123 144 152 159 163 169 175 182 190 199
80 71 64 54 30 12 55 63 62 54 42 42 42 34 30 7 353 354 354 18 99 47 31 36 17 357 354 36 108 157 169 175 179 185 191 198 207 215
82 62 54 57 17 353 39 52 51 54 102 95 17 332 317 349 357 4 3 1 16 53 36 24 12 7 14 31 49 118 187 197 203 207 213 218 222 227
112 101 68 42 18 4 27 36 34 20 10 24 29 3 16 29 24 16 7 4 3 21 22 359 4 15 70 71 56 184 183 197 203 211 216 220 221 224
111 96 72 41 27 14 16 37 359 317 345 4 14 15 16 17 18 22 15 10 8 11 4 352 353 360 20 93 148 189 209 189 188 199 205 209 209 212
73 70 77 54 44 33 38 8 330 328 11 13 13 12 11 9 9 9 14 14 16 15 7 358 351 350 343 350 110 180 199 207 198 188 182 191 210 222
78 64 65 108 197 106 59 344 348 17 14 10 7 4 2 3 350 352 355 347 328 39 24 6 355 345 335 336 343 353 264 192 201 194 182 184 189 195
135 135 158 172 131 103 148 31 40 30 5 4 358 354 351 351 356 358 350 348 350 9 28 11 360 351 344 345 357 12 13 16 55 187 189 183 183 194
156 165 159 150 128 91 67 45 30 23 15 11 3 357 354 353 355 359 352 344 352 357 1 2 355 2 31 13 6 6 5 5 12 14 274 197 179 185
249 152 137 123 93 66 45 42 42 29 15 12 9 2 357 355 356 357 356 354 353 355 356 357 353 346 338 65 25 9 6 360 353 350 334 307 240 171
203 145 136 120 97 72 47 36 35 37 13 10 11 4 357 356 0 358 4 358 351 350 350 355 358 351 339 340 23 27 358 350 344 345 347 335 316 308
188 156 152 141 116 62 39 29 23 22 14 7 12 5 360 359 2 355 6 7 346 347 349 359 6 350 330 323 316 316 13 344 344 340 335 324 310 292
179 175 178 178 173 170 25 356 0 9 10 347 8 4 358 358 2 354 357 4 332 350 350 357 4 314 304 310 309 318 341 109 331 327 328 319 316 304
187 190 194 203 216 238 247 271 297 324 334 336 2 354 352 351 352 346 348 345 345 350 344 345 348 339 341 341 337 338 341 339 252 208 261 299 319 323
195 201 202 207 219 232 246 249 262 289 308 330 337 339 342 341 337 340 340 338 340 343 337 340 346 345 348 346 344 347 350 346 341 325 301 223 251 267
Height
1490 1488 1488 1487 1487 1486 1484 1483 1483 1480 1479 1477 1477 1475 1473 1472 1471 1471 1471 1471 1471 1471 1470 1470 1470 1469 1469 1468 1466 1465 1466 1468 1471 1475 1479 1484 1489 1495
1487 1486 1486 1486 1485 1484 1483 1482 1481 1480 1478 1476 1474 1473 1471 1470 1468 1467 1467 1467 1466 1465 1465 1464 1464 1463 1462 1461 1460 1458 1459 1461 1464 1469 1473 1479 1484 1491
1486 1485 1484 1484 1484 1484 1482 1481 1480 1478 1476 1474 1472 1470 1468 1467 1465 1464 1463 1462 1461 1460 1460 1459 1458 1458 1456 1455 1454 1453 1453 1455 1459 1463 1468 1473 1479 1486
1485 1484 1484 1484 1483 1483 1481 1480 1479 1476 1474 1471 1470 1468 1466 1464 1462 1460 1459 1458 1457 1456 1456 1455 1454 1453 1451 1450 1449 1449 1449 1451 1454 1458 1463 1468 1474 1482
1484 1484 1484 1484 1483 1482 1481 1480 1478 1476 1472 1470 1468 1467 1465 1462 1460 1458 1456 1454 1453 1452 1452 1451 1451 1450 1448 1446 1445 1445 1446 1448 1450 1454 1458 1463 1470 1477
1484 1485 1485 1485 1483 1482 1481 1480 1477 1475 1472 1470 1468 1467 1465 1462 1459 1456 1453 1452 1450 1449 1448 1448 1448 1447 1446 1444 1443 1443 1444 1445 1448 1451 1456 1461 1467 1476
1486 1486 1486 1485 1483 1482 1481 1480 1478 1475 1473 1472 1470 1469 1467 1463 1460 1456 1453 1450 1448 1447 1446 1445 1446 1446 1445 1444 1443 1442 1442 1444 1447 1450 1455 1461 1467 1475
1489 1489 1488 1486 1485 1484 1482 1480 1479 1477 1476 1474 1473 1472 1470 1467 1462 1458 1455 1451 1449 1447 1445 1444 1444 1444 1445 1446 1445 1445 1445 1446 1449 1453 1457 1463 1469 1476
1491 1491 1491 1489 1487 1486 1484 1482 1481 1479 1477 1477 1476 1474 1472 1469 1464 1461 1457 1454 1451 1448 1446 1444 1444 1444 1445 1445 1446 1448 1449 1450 1452 1456 1460 1465 1471 1477
1492 1492 1491 1490 1488 1487 1487 1485 1483 1481 1480 1478 1478 1475 1473 1469 1466 1463 1460 1456 1454 1451 1448 1447 1446 1444 1444 1445 1446 1448 1451 1453 1455 1458 1462 1467 1472 1476
1493 1492 1492 1490 1489 1488 1488 1486 1485 1484 1482 1480 1478 1476 1474 1470 1467 1465 1462 1459 1457 1454 1452 1450 1448 1446 1445 1445 1446 1447 1450 1453 1455 1459 1462 1466 1470 1473
1493 1492 1491 1491 1490 1489 1488 1487 1485 1484 1483 1482 1480 1477 1475 1472 1468 1465 1463 1461 1459 1457 1455 1453 1451 1450 1449 1447 1446 1447 1448 1451 1453 1456 1459 1462 1465 1467
1494 1493 1492 1490 1489 1488 1487 1486 1485 1484 1484 1482 1480 1478 1475 1473 1470 1467 1464 1463 1461 1459 1457 1454 1453 1451 1450 1449 1448 1448 1448 1448 1450 1452 1454 1457 1459 1461
1493 1493 1491 1490 1489 1489 1488 1487 1486 1485 1484 1482 1480 1477 1475 1473 1470 1468 1465 1463 1461 1460 1457 1455 1454 1452 1451 1450 1449 1448 1448 1448 1448 1449 1450 1452 1454 1455
1491 1490 1490 1489 1489 1489 1488 1487 1487 1486 1484 1482 1480 1478 1476 1473 1470 1468 1466 1464 1461 1460 1457 1455 1454 1453 1452 1451 1450 1449 1448 1447 1447 1447 1448 1448 1449 1451
1490 1489 1489 1489 1490 1489 1489 1489 1488 1486 1484 1482 1480 1478 1475 1473 1471 1468 1466 1464 1462 1460 1458 1456 1454 1452 1451 1450 1449 1448 1448 1447 1446 1446 1446 1446 1447 1447
1489 1490 1490 1491 1491 1491 1490 1489 1488 1486 1484 1482 1480 1478 1475 1473 1471 1469 1467 1465 1463 1461 1459 1457 1455 1453 1451 1450 1449 1448 1447 1447 1446 1445 1444 1444 1444 1444
1488 1490 1490 1490 1490 1490 1490 1489 1488 1486 1485 1483 1481 1478 1476 1474 1472 1470 1468 1466 1464 1462 1460 1458 1455 1453 1452 1450 1449 1448 1447 1446 1445 1444 1443 1443 1443 1442
1488 1489 1490 1490 1490 1490 1490 1489 1489 1487 1486 1484 1482 1480 1477 1475 1473 1471 1469 1467 1465 1463 1461 1459 1457 1455 1453 1450 1448 1447 1446 1445 1444 1443 1442 1441 1441 1440
1487 1488 1489 1490 1490 1490 1490 1490 1489 1488 1487 1485 1483 1481 1478 1476 1474 1472 1470 1468 1466 1464 1462 1460 1458 1456 1454 1452 1449 1447 1445 1444 1443 1441 1440 1438 1438 1437
1485 1487 1488 1489 1489 1489 1489 1489 1489 1488 1487 1485 1483 1481 1479 1477 1475 1473 1471 1469 1467 1465 1463 1460 1458 1455 1453 1450 1448 1446 1444 1441 1440 1439 1438 1437 1435 1435
1483 1484 1486 1487 1487 1488 1488 1488 1488 1487 1486 1484 1483 1481 1479 1477 1475 1473 1472 1470 1467 1465 1463 1461 1458 1455 1453 1450 1448 1445 1443 1441 1438 1436 1435 1434 1433 1432
1481 1482 1483 1484 1485 1485 1486 1485 1485 1485 1484 1483 1482 1480 1479 1477 1475 1473 1471 1469 1467 1465 1463 1460 1458 1455 1453 1450 1448 1445 1442 1440 1437 1435 1434 1432 1431 1430